Regional Weather Roundup
Issued by NWS

Home | Current Version | Previous Version | Graphics & Text | Print | Product List | Glossary On
Versions: 1 2 3 4 5 6 7 8 9 10 11 12 13 14 15 16 17 18 19 20 21 22 23 24 25 26 27 28
000
ASUS45 KBOU 310507
RWRCO

WEATHER ROUNDUP FOR COLORADO
NATIONAL WEATHER SERVICE DENVER/BOULDER CO
1100 PM MDT MON MAY 30 2016

NOTE: "FAIR" INDICATES FEW OR NO CLOUDS BELOW 12000 FEET WITH NO
SIGNIFICANT WEATHER AND/OR OBSTRUCTIONS TO VISIBILITY.

COZ001>005-013-030-031-310600-
...NORTHWEST COLORADO...

CITY           SKY/WX    TMP DP  RH WIND       PRES   REMARKS
CRAIG          CLOUDY    52  38  58 SE3       30.13R
HAYDEN         CLOUDY    55  36  47 S6        30.14R
MEEKER         CLOUDY    52  39  61 E3        30.14R
MOUNT WERNER   NOT AVBL
STEAMBOAT SPGS FAIR      52  37  55 E7        30.15S
WALDEN         NOT AVBL
$$

COZ006>008-011-310600-
...WEST CENTRAL VALLEYS...

CITY           SKY/WX    TMP DP  RH WIND       PRES   REMARKS
GRAND JUNCTION FAIR      61  37  41 SE7       30.02R
MONTROSE       FAIR      57  33  40 SE9       30.10R
EAGLE          FAIR      50  36  57 E5        30.18R
RIFLE          FAIR      53  35  50 SE8       30.10R
DELTA          FAIR      62  32  33 E5        30.05F
NUCLA          FAIR      59  30  33 E10       30.11S
$$

COZ017>023-064>068-310600-
...SOUTHWEST COLORADO...

CITY           SKY/WX    TMP DP  RH WIND       PRES   REMARKS
DURANGO        FAIR      59  25  27 CALM      30.08R
CORTEZ         FAIR      53  31  42 E3        30.06R
PAGOSA SPRINGS FAIR      54  23  30 CALM      30.16S
TELLURIDE      FAIR      46  31  57 SE9       30.28F
WOLF CREEK PAS FAIR      36  23  60 NE8       30.43F
$$

COZ009-010-012-014-032>034-037-058>063-310600-
...CENTRAL COLORADO...

CITY           SKY/WX    TMP DP  RH WIND       PRES   REMARKS
ASPEN          FAIR      42  35  76 SW6       30.22S
BUENA VISTA    FAIR      49  32  51 NW14G20   30.21F
COPPER MTN     NOT AVBL
BERTHOUD PASS  FAIR      30  21  69 NW22G31   30.40F WCI  17
COTTONWOOD PAS FAIR      46  27  46 W7        30.30F
GUNNISON       FAIR      46  34  61 E3        30.24R
KREMMLING      FAIR      41  36  81 CALM      30.22S
LEADVILLE      FAIR      33  27  78 NE5       30.31S WCI  29
SALIDA         MOCLDY    54  32  43 W5        30.26S
SUNLIGHT       FAIR      45  23  42 CALM      30.39S
WILKERSON PASS FAIR      37  21  52 NW9       30.40R
$$

COZ069>075-310600-
...SAN LUIS VALLEY/SANGRE DE CRISTO MOUNTAINS...

CITY           SKY/WX    TMP DP  RH WIND       PRES   REMARKS
ALAMOSA        FAIR      52  31  44 N6        30.16R
LA VETA PASS   FAIR      45  30  57 NE8       30.32F
SAGUACHE       FAIR      50  30  46 N9        30.20S
$$

COZ035-036-038>040-310600-
...NORTHERN COLORADO FRONT RANGE...

CITY           SKY/WX    TMP DP  RH WIND       PRES   REMARKS
DENVER INTL AP MOCLDY    56  43  61 SW9       30.05S
DMNS CITY PARK   N/A     57  43  58 SE8       30.04F
AURORA         MOCLDY    52  43  72 S9        30.07S
FRONT RANGE AP NOT AVBL
ERIE MUNI ARPT FAIR      53  40  60 CALM      30.03S
BOULDER MUN AP FAIR      57  36  44 W5        30.03F
CENTENNIAL     MOCLDY    53  40  61 S6        30.07F
BROOMFIELD     NOT AVBL
FORT COLLINS   FAIR      55  41  58 SE7       30.03S
LONGMONT       FAIR      63  35  35 NW10      30.04S
$$

COZ041-046-047-076>085-087-088-310600-
...PIKES PEAK/PALMER DIVIDE AND SOUTHERN FOOTHILLS...

CITY           SKY/WX    TMP DP  RH WIND       PRES   REMARKS
COLO. SPRINGS  FAIR      58  37  45 NW5       30.13R
A. F. ACADEMY  FAIR      50  39  66 VRB2      30.12R
SCHRIEVER AFB  NOT AVBL
ELLICOTT       NOT AVBL
FALCON         FAIR      51  37  57 CALM      30.15R
FORT CARSON    FAIR      54  40  58 N5        30.09R
LIMON          FAIR      49  46  90 N3        30.06F
MONUMENT HILL  FAIR      45  41  87 CALM      30.15S
TRINIDAD       LGT RAIN  64  38  38 NW9       30.08R
$$

COZ042>045-048>051-090-091-310600-
...NORTHEAST COLORADO...

CITY           SKY/WX    TMP DP  RH WIND       PRES   REMARKS
GREELEY ARPT   FAIR      55  46  71 E3        30.03R
AKRON          CLOUDY    56  47  71 W9        30.01S
BURLINGTON     FAIR      56  48  74 NE8       30.00S
WRAY           FAIR      59  52  77 S6        29.99R
STERLING       CLOUDY    54  52  94 N5        30.00S
HOLYOKE        FAIR      61  50  67 NW7       29.98R
FORT MORGAN    FAIR      53  45  75 NE3       30.03R
$$

COZ086-089-092>099-310600-
...SOUTHEAST COLORADO...

CITY           SKY/WX    TMP DP  RH WIND       PRES   REMARKS
PUEBLO         FAIR      63  46  54 NE10      30.01S
LA JUNTA       LGT RAIN  66  45  46 N20G26    30.01R
LAMAR          FAIR      64  46  52 NE6       29.95R
SPRINGFIELD      N/A     58  45  62 NW6       29.96S
$$




USA.gov is the U.S. government's official web portal to all federal, state and local government web resources and services.